Nashua, NH

5:17 AM EDT on March 30, 2017 (GMT -0400)
Boire

Weather History for KASH - April, 2013

Change the Weather History Date:

Friday, April 5, 2013

  Actual Average Record
Temperature  
Mean Temperature 49 °F -  
Max Temperature 61 °F 53 °F 73 °F (1991)
Min Temperature 37 °F 32 °F 12 °F (1954)
Degree Days  
Heating Degree Days 16    
Moisture  
Dew Point 22 °F    
Average Humidity 42    
Maximum Humidity 68    
Minimum Humidity 20    
Precipitation  
Precipitation 0.00 in - - ()
Sea Level Pressure  
Sea Level Pressure 30.57 in    
Wind  
Wind Speed 6 mph (NNW)    
Max Wind Speed 18 mph    
Max Gust Speed 29 mph    
Visibility 10 miles    
Events      
Averages and records for this station are not official NWS values.
T = Trace of Precipitation, MM = Missing Value Source: NWS Daily Summary

Daily Weather History Graph

Daily Weather History Graph

Search for Another Location

Airport or City:

Trip Planner

Search our weather history database for the weather conditions in past years. The results will help you decide how hot, cold, wet, or windy it might be!

Date:

Astronomy

Apr. 05, 2013 Rise Set
Actual Time 6:20 AM EDT 7:17 PM EDT
Civil Twilight 5:52 AM EDT 7:45 PM EDT
Nautical Twilight 5:18 AM EDT 8:20 PM EDT
Astronomical Twilight 4:42 AM EDT 8:56 PM EDT
Moon 3:32 AM EDT (4/5) 2:31 PM EDT (4/5)
Length of Visible Light 13h 53m
Length of Day
12h 56m
Waning Crescent, 24% of the Moon is Illuminated
Apr 5
Waning Crescent
Apr 10
New
Apr 18
First Quarter
Apr 25
Full
May 2
Last Quarter

Hourly Weather History & Observations

Time (EDT) Temp. Windchill Dew Point Humidity Pressure Visibility Wind Dir Wind Speed Gust Speed Precip Events Conditions
12:51 AM 41.9 °F 40.0 °F 22.1 °F 45% 30.76 in 10.0 mi Variable 3.5 mph - N/A   Clear
1:51 AM 39.9 °F 36.7 °F 24.1 °F 53% 30.73 in 10.0 mi Variable 4.6 mph - N/A   Clear
2:51 AM 38.8 °F 36.5 °F 26.1 °F 60% 30.71 in 10.0 mi Variable 3.5 mph - N/A   Clear
3:51 AM 37.9 °F 34.4 °F 27.1 °F 65% 30.69 in 10.0 mi SSE 4.6 mph - N/A   Clear
4:51 AM 37.9 °F - 28.0 °F 68% 30.69 in 10.0 mi Calm Calm - N/A   Clear
5:51 AM 37.9 °F - 27.1 °F 65% 30.66 in 10.0 mi Calm Calm - N/A   Clear
6:51 AM 37.9 °F - 27.1 °F 65% 30.66 in 10.0 mi Calm Calm - N/A   Clear
7:51 AM 38.8 °F 36.5 °F 26.1 °F 60% 30.65 in 10.0 mi Variable 3.5 mph - N/A   Clear
8:51 AM 41.9 °F - 24.1 °F 49% 30.63 in 10.0 mi Calm Calm - N/A   Clear
9:51 AM 47.8 °F - 23.0 °F 38% 30.60 in 10.0 mi Variable 4.6 mph - N/A   Clear
10:51 AM 50.0 °F - 20.1 °F 31% 30.58 in 10.0 mi NW 8.1 mph - N/A   Clear
11:51 AM 52.9 °F - 18.1 °F 26% 30.54 in 10.0 mi Calm Calm - N/A   Clear
12:51 PM 54.9 °F - 16.2 °F 22% 30.48 in 10.0 mi Calm Calm - N/A   Clear
1:51 PM 56.8 °F - 16.2 °F 20% 30.44 in 10.0 mi North 3.5 mph - N/A   Scattered Clouds
2:51 PM 61.0 °F - 19.0 °F 20% 30.39 in 10.0 mi NW 18.4 mph 24.2 mph N/A   Scattered Clouds
3:51 PM 59.0 °F - 19.0 °F 21% 30.38 in 10.0 mi NW 12.7 mph 18.4 mph N/A   Scattered Clouds
4:51 PM 57.9 °F - 20.1 °F 23% 30.40 in 10.0 mi NNW 18.4 mph 23.0 mph N/A   Scattered Clouds
5:51 PM 55.9 °F - 18.1 °F 23% 30.42 in 10.0 mi NNW 16.1 mph 23.0 mph N/A   Scattered Clouds
6:51 PM 52.9 °F - 19.0 °F 26% 30.45 in 10.0 mi NNW 18.4 mph 25.3 mph N/A   Scattered Clouds
7:51 PM 48.9 °F - 22.1 °F 35% 30.51 in 10.0 mi NNW 18.4 mph 28.8 mph N/A   Scattered Clouds
8:51 PM 45.0 °F 38.2 °F 24.1 °F 44% 30.56 in 10.0 mi North 15.0 mph 25.3 mph N/A   Clear
9:51 PM 41.9 °F 33.4 °F 25.2 °F 52% 30.60 in 10.0 mi NNW 18.4 mph - N/A   Clear
10:51 PM 39.9 °F 32.9 °F 24.1 °F 53% 30.61 in 10.0 mi NW 11.5 mph - N/A   Clear
11:51 PM 38.8 °F 30.0 °F 21.0 °F 49% 30.64 in 10.0 mi NW 16.1 mph 25.3 mph N/A   Clear